Regional Weather Roundup
Issued by NWS Nashville, TN

Home | Current Version | Previous Version | Text Only | Print | Product List | Glossary On
Versions: 1 2 3 4 5 6 7 8 9 10 11 12 13 14 15 16 17 18 19 20 21 22 23 24 25 26 27 28 29 30 31 32 33 34 35 36 37 38 39 40 41 42 43 44 45 46 47 48 49 50
000
ASUS44 KOHX 201115
RWROHX
MIDDLE TENNESSEE HOURLY WEATHER ROUNDUP
NATIONAL WEATHER SERVICE NASHVILLE TN
600 AM CDT WED AUG 20 2014

NOTE: "FAIR" INDICATES FEW OR NO CLOUDS BELOW 12,000 FEET WITH
NO SIGNIFICANT WEATHER AND/OR OBSTRUCTIONS TO VISIBILITY.

* THESE REPORTS ARE NOT UNDER NWS QUALITY CONTROL AND MAY NOT
  REPORT WEATHER SUCH AS PRECIPITATION AND FOG.


TNZ005>011-023>034-057-059-062>066-078-080-201200
...NORTHERN MIDDLE TENNESSEE...

CITY           SKY/WX    TMP DP  RH WIND       PRES   REMARKS
CLARKSVILLE    CLEAR     74  72  93 SW5       29.92R
CROSSVILLE     MOCLDY    71  67  87 CALM      30.03R FOG
GALLATIN         N/A     72  72 100 CALM      29.95R
NASHVILLE      PTCLDY    78  74  87 W5        29.94R
SMYRNA         CLEAR     73  71  93 CALM      29.95R
SPARTA         PTCLDY    72  72 100 S3        29.98R
$$
TNZ056-058-060-061-075>077-079-093>097-201200
...SOUTHERN MIDDLE TENNESSEE...

CITY           SKY/WX    TMP DP  RH WIND       PRES   REMARKS
COLUMBIA       CLEAR     75  75 100 SW6       29.95R
FAYETTEVILLE   MOCLDY    72  72 100 S3        30.00R
LEWISBURG      CLEAR     77  72  84 SW5       29.96R
MCMINNVILLE    PTCLDY    73  73 100 SW3       29.99R
MURFREESBORO   PTCLDY    75  71  87 SE3       29.95R
SHELBYVILLE    PTCLDY    73  72  94 S5        29.98R
TULLAHOMA      PTCLDY    72  70  94 SW3       30.00R
WINCHESTER     PTCLDY    72  70  94 CALM      30.00R
$$


...KEY TO REMARKS...
VSB - VISIBILITY IN MILES
WCI - WIND CHILL INDEX
HX  - HEAT INDEX



USA.gov is the U.S. government's official web portal to all federal, state and local government web resources and services.